#timestamp,LO_Frequency,Hit,StdDev 
1557064815.2,286046998.3,N
1557064835.9,286047001.1,N
1557064855.7,286047001.2,N
1557064875.6,286047000.6,N
1557064895.4,286046999.0,N
1557064915.2,286046999.6,N
1557064935.1,286046997.6,N
1557064936.0,286046997.6,N
1557064955.8,286046999.6,N
1557064975.7,286046996.6,N
1557064995.5,286046996.9,N
1557065015.3,286046998.6,N
1557065035.2,286046999.6,N
1557065055.0,286046999.6,N
1557065055.9,286046999.6,N
1557065075.8,286046996.5,N
1557065095.6,286047001.1,N
1557065115.4,286047002.5,N
1557065135.3,286047003.7,N
1557065155.1,286047004.0,N
1557065175.8,286047005.5,Y
1557065195.7,286047003.1,P
1557065215.5,286047003.9,N
1557065235.4,286047002.3,N
1557065255.2,286047003.8,N
1557065275.0,286047003.7,N
1557065275.9,286047003.7,N
1557065295.8,286047003.2,N
1557065315.6,286047003.6,N
1557065335.4,286047006.0,Y
1557065355.3,286047002.2,P
1557065375.1,286047002.2,P
1557065395.9,286047001.2,P
1557065415.7,286047001.1,N
1557065435.5,286047002.3,Y
1557065455.4,286047000.8,P
1557065475.2,286046999.5,N
1557065495.1,286046997.1,N
1557065496.0,286046997.1,N
1557065515.8,286047011.9,Y
1557065535.6,286046998.3,P
1557065555.5,286046998.1,P
1557065575.3,286047000.7,N
1557065595.1,286047002.4,N
1557065615.9,286047002.8,N
1557065635.7,286047001.2,N
1557065655.6,286046996.5,N
1557065675.4,286046997.7,N
1557065695.2,286046997.6,N
1557065715.1,286046996.5,N
1557065716.0,286046996.5,N
1557065735.8,286046999.6,N
1557065755.7,286046996.6,N
1557065775.5,286046997.4,N
1557065795.3,286046997.0,N
1557065815.2,286046995.1,N
1557065835.0,286046997.8,N
1557065835.9,286046997.8,N
1557065855.8,286046996.6,N
1557065875.6,286046997.8,N
1557065895.4,286046997.7,N
1557065915.3,286046995.0,N
1557065935.1,286046994.9,N
1557065955.8,286046995.2,N
1557065975.7,286046997.2,N
1557065995.5,286046994.9,N
1557066015.4,286046999.5,N
1557066035.2,286046999.4,N
1557066055.0,286046999.6,N
1557066055.9,286046999.6,N
1557066075.8,286046995.1,N
1557066095.6,286046995.3,N
1557066115.4,286046997.5,N
1557066135.3,286046995.4,N
1557066155.1,286046995.3,N
1557066175.9,286046995.6,N
1557066195.7,286046997.6,N
1557066215.5,286046999.6,N
1557066235.4,286046999.1,N
1557066255.2,286046997.0,N
1557066275.0,286046999.0,N
1557066275.9,286046999.0,N
1557066295.8,286046999.0,N
1557066315.6,286046999.8,N
1557066335.5,286046998.1,N
1557066355.3,286046997.7,N
1557066375.3,286046995.6,N
1557066395.1,286046994.9,N
1557066415.9,286046995.7,N
1557066435.7,286046996.0,N
1557066455.6,286046994.9,N
1557066475.4,286046999.1,N
1557066495.2,286046998.7,N
1557066515.1,286046999.0,N
1557066516.0,286046999.0,N
1557066535.8,286046996.5,N
1557066555.6,286046999.6,N
1557066575.5,286046997.7,N
1557066595.3,286046997.9,N
1557066615.2,286046996.8,N
1557066635.9,286046999.0,N
1557066655.7,286047000.6,N
1557066675.6,286046999.9,N
1557066695.4,286046996.5,N
1557066715.2,286046996.8,N
1557066735.1,286046995.5,N
1557066736.0,286046995.5,N
1557066755.8,286046995.3,N
1557066775.6,286046997.5,N
1557066795.5,286046997.0,N
1557066815.3,286046999.9,N
1557066835.2,286046998.5,N
1557066855.9,286047001.0,N
1557066875.7,286046998.2,N
1557066895.6,286047002.6,N
1557066915.4,286047001.0,N
1557066935.2,286046999.0,N
1557066955.1,286046995.4,N
1557066956.0,286046995.4,N
1557066975.8,286046995.9,N
1557066995.7,286046997.9,N
1557067015.5,286046995.5,N
1557067035.3,286046996.0,N
1557067055.2,286046995.7,N
1557067075.1,286046994.5,N
1557067095.8,286046997.5,N
1557067115.7,286046996.8,N
1557067135.5,286046998.9,N
1557067155.4,286046998.7,N
1557067175.2,286046997.1,N
1557067195.0,286046999.1,N
1557067195.9,286046999.1,N
1557067215.8,286046999.9,N
1557067235.6,286047001.3,N
1557067255.5,286047004.3,N
1557067275.3,286047003.5,N
1557067295.1,286047003.5,N
1557067315.9,286047001.3,N
1557067335.7,286047001.5,N
1557067355.5,286047002.1,N
1557067375.4,286047002.5,N
1557067395.2,286047002.4,N
1557067415.1,286047000.1,N
1557067416.0,286047000.1,N
1557067435.8,286047001.6,N
1557067455.6,286047000.1,N
1557067475.5,286047001.8,N
1557067495.3,286047001.6,N
1557067515.1,286047001.7,N
1557067535.9,286047002.5,N
1557067555.7,286047001.4,N
1557067575.6,286047001.4,N
1557067595.4,286047003.7,N
1557067615.2,286047003.5,N
1557067635.1,286047001.8,N
1557067636.0,286047001.8,N
1557067655.8,286046999.7,N
1557067675.6,286046999.9,N
1557067695.5,286047001.7,N
1557067715.3,286047001.8,N
1557067735.2,286047001.6,N
1557067755.9,286047001.7,N
1557067775.7,286047001.5,N
1557067795.6,286047002.2,N
1557067815.4,286047002.2,N
1557067835.3,286047001.6,N
1557067855.1,286047002.3,N
1557067856.0,286047002.3,N
1557067875.8,286047000.5,N
1557067895.7,286047000.9,N
1557067915.5,286046998.2,N
1557067935.3,286047000.9,N
1557067955.2,286047000.0,N
1557067975.0,286047000.5,N
1557067975.9,286047000.5,N
1557067995.8,286046999.7,N
1557068015.6,286047002.8,N
1557068035.4,286047001.4,N
1557068055.3,286047001.5,N
1557068075.1,286047004.4,Y
1557068095.8,286047001.5,P
1557068115.7,286047003.5,P
1557068135.5,286047003.5,P
1557068155.4,286047002.0,N
1557068175.2,286047001.9,N
1557068195.0,286047004.4,Y
1557068195.9,286047004.4,P
1557068215.8,286047002.7,N
1557068235.6,286046999.9,N
1557068255.4,286047000.9,N
1557068275.3,286047002.8,N
1557068295.1,286047000.9,N
1557068315.9,286046999.9,N
1557068335.7,286047001.0,N
1557068355.5,286047000.3,N
1557068375.4,286047000.4,N
1557068395.2,286047001.0,N
